FW8113 Weather Reports


Display with metric or nautical units.
time (UTC)temp
F
wind
direction
speed
MPH
gust
MPH
rain 1hr
in
rain 24hr
in
rain mn
in
humidity
%
barometer
mb
20240522134328 75 133 0.0 2.0 0.00 0.00 0.00 73 1013.4
20240522133826 75 80 0.0 0.0 0.00 0.00 0.00 76 1013.4
20240522133325 74 114 0.0 2.0 0.00 0.00 0.00 76 1013.8
20240522132824 73 97 2.0 3.0 0.00 0.00 0.00 78 1013.4
20240522132323 72 74 3.0 5.0 0.00 0.00 0.00 77 1013.8
20240522131821 72 108 1.0 2.0 0.00 0.00 0.00 78 1014.2
20240522131320 71 119 0.0 2.0 0.00 0.00 0.00 80 1013.8
20240522130819 71 110 0.0 0.0 0.00 0.00 0.00 80 1013.8
20240522130318 70 108 0.0 0.0 0.00 0.00 0.00 81 1013.8
20240522125816 70 96 0.0 0.0 0.00 0.00 0.00 83 1013.8
20240522125315 70 120 0.0 0.0 0.00 0.00 0.00 83 1013.8
20240522124813 69 111 0.0 0.0 0.00 0.00 0.00 84 1013.8
20240522124311 69 107 0.0 0.0 0.00 0.00 0.00 84 1013.8
20240522123811 69 106 0.0 0.0 0.00 0.00 0.00 84 1014.2
20240522123310 68 99 0.0 0.0 0.00 0.00 0.00 84 1014.2
20240522122809 68 104 0.0 0.0 0.00 0.00 0.00 85 1013.8
20240522122308 68 99 0.0 0.0 0.00 0.00 0.00 85 1013.8
20240522121803 68 120 0.0 0.0 0.00 0.00 0.00 86 1013.4
20240522121302 68 107 0.0 0.0 0.00 0.00 0.00 87 1013.8
20240522120801 67 82 0.0 2.0 0.00 0.00 0.00 87 1013.8
20240522120300 67 107 0.0 2.0 0.00 0.00 0.00 87 1014.2
20240522115757 67 107 0.0 0.0 0.00 0.00 0.00 88 1013.8
20240522115254 67 69 1.0 2.0 0.00 0.00 0.00 88 1013.8
20240522114754 66 111 0.0 0.0 0.00 0.00 0.00 88 1013.8
20240522114252 66 107 0.0 0.0 0.00 0.00 0.00 88 1013.8
20240522113751 66 105 0.0 0.0 0.00 0.00 0.00 89 1014.2
20240522113249 66 98 0.0 0.0 0.00 0.00 0.00 89 1014.2
20240522112748 66 150 0.0 2.0 0.00 0.00 0.00 90 1014.2
20240522112246 65 99 0.0 0.0 0.00 0.00 0.00 90 1013.8
20240522111744 65 94 0.0 2.0 0.00 0.00 0.00 91 1013.8
20240522111243 65 143 0.0 2.0 0.00 0.00 0.00 92 1013.8
20240522110742 65 123 0.0 0.0 0.00 0.00 0.00 92 1014.2
20240522110242 65 94 0.0 0.0 0.00 0.00 0.00 93 1013.8
20240522105741 65 96 0.0 0.0 0.00 0.00 0.00 93 1014.2
20240522105241 65 110 0.0 0.0 0.00 0.00 0.00 93 1013.8
20240522104739 65 95 0.0 0.0 0.00 0.00 0.00 93 1014.2
20240522104238 65 113 0.0 0.0 0.00 0.00 0.00 94 1014.2
20240522103737 65 102 0.0 0.0 0.00 0.00 0.00 94 1014.2
20240522103236 65 103 0.0 0.0 0.00 0.00 0.00 94 1014.2
20240522102734 65 100 0.0 0.0 0.00 0.00 0.00 94 1014.2
20240522102232 65 60 0.0 2.0 0.00 0.00 0.00 94 1014.2
20240522101731 64 107 0.0 0.0 0.00 0.00 0.00 94 1014.2
20240522101230 64 105 0.0 0.0 0.00 0.00 0.00 95 1014.2
20240522100728 64 91 0.0 0.0 0.00 0.00 0.00 95 1014.2
20240522100228 64 90 0.0 0.0 0.00 0.00 0.00 95 1014.2
20240522095726 64 90 0.0 0.0 0.00 0.00 0.00 95 1014.2
20240522095225 64 90 0.0 0.0 0.00 0.00 0.00 95 1013.8
20240522094724 64 90 0.0 0.0 0.00 0.00 0.00 95 1014.2
20240522094223 64 90 0.0 0.0 0.00 0.00 0.00 95 1013.4
20240522093723 64 90 0.0 0.0 0.00 0.00 0.00 95 1013.8
20240522093222 64 90 0.0 0.0 0.00 0.00 0.00 95 1013.4
20240522092723 64 90 0.0 0.0 0.00 0.00 0.00 95 1013.4
20240522092221 64 90 0.0 0.0 0.00 0.00 0.00 95 1013.4
20240522091719 64 90 0.0 0.0 0.00 0.00 0.00 95 1013.4
20240522091216 64 90 0.0 0.0 0.00 0.00 0.00 95 1013.4
20240522090715 64 91 0.0 0.0 0.00 0.00 0.00 95 1013.4
20240522090214 64 91 0.0 0.0 0.00 0.00 0.00 95 1013.4
20240522085713 64 93 0.0 0.0 0.00 0.00 0.00 95 1013.0
20240522085212 64 93 0.0 0.0 0.00 0.00 0.00 95 1013.0
20240522084710 64 93 0.0 0.0 0.00 0.00 0.00 95 1013.0
20240522084208 64 93 0.0 0.0 0.00 0.00 0.00 95 1013.0
20240522083707 64 92 0.0 0.0 0.00 0.00 0.00 95 1013.0
20240522083205 64 92 0.0 0.0 0.00 0.00 0.00 95 1013.0
20240522082704 64 92 0.0 0.0 0.00 0.00 0.00 95 1013.0
20240522082203 64 92 0.0 0.0 0.00 0.00 0.00 95 1013.0
20240522081702 64 92 0.0 0.0 0.00 0.00 0.00 95 1013.0
20240522081201 64 92 0.0 0.0 0.00 0.00 0.00 95 1012.7
20240522080701 64 92 0.0 0.0 0.00 0.00 0.00 95 1012.7
20240522080201 64 92 0.0 0.0 0.00 0.00 0.00 95 1012.7
20240522075700 64 92 0.0 0.0 0.00 0.00 0.00 95 1012.7
20240522075200 64 92 0.0 0.0 0.00 0.00 0.00 95 1012.7
20240522074658 64 92 0.0 0.0 0.00 0.00 0.00 95 1012.7
20240522074157 64 93 0.0 0.0 0.00 0.00 0.00 95 1012.7
20240522073656 64 92 0.0 0.0 0.00 0.00 0.00 95 1012.7
20240522073155 64 93 0.0 0.0 0.00 0.00 0.00 94 1012.4
20240522072652 64 93 0.0 0.0 0.00 0.00 0.00 94 1012.7
20240522072150 64 93 0.0 0.0 0.00 0.00 0.00 94 1012.4
20240522071649 64 92 0.0 0.0 0.00 0.00 0.00 94 1012.7
20240522071148 64 92 0.0 0.0 0.00 0.00 0.00 94 1012.7
20240522070647 64 92 0.0 0.0 0.00 0.00 0.00 94 1012.7
20240522070145 64 92 0.0 0.0 0.00 0.00 0.00 94 1012.4
20240522065644 64 92 0.0 0.0 0.00 0.00 0.00 94 1012.4
20240522065143 65 92 0.0 0.0 0.00 0.00 0.00 94 1012.4
20240522064642 65 92 0.0 0.0 0.00 0.00 0.00 94 1012.4
20240522064141 65 92 0.0 0.0 0.00 0.00 0.00 94 1012.7
20240522063641 65 92 0.0 0.0 0.00 0.00 0.00 94 1012.7
20240522063139 65 92 0.0 0.0 0.00 0.00 0.00 94 1013.0
20240522062638 65 92 0.0 0.0 0.00 0.00 0.00 94 1012.4
20240522062137 65 93 0.0 0.0 0.00 0.00 0.00 94 1012.4
20240522061636 65 92 0.0 0.0 0.00 0.00 0.00 94 1012.0
20240522061135 66 93 0.0 0.0 0.00 0.00 0.00 94 1012.4
20240522060634 66 93 0.0 0.0 0.00 0.00 0.00 94 1012.4
20240522060133 66 93 0.0 0.0 0.00 0.00 0.00 93 1012.7
20240522055633 66 92 0.0 0.0 0.00 0.00 0.00 94 1012.4
20240522055131 66 90 0.0 0.0 0.00 0.00 0.00 93 1012.4
20240522054629 66 90 0.0 0.0 0.00 0.00 0.00 93 1012.4
20240522054127 66 90 0.0 0.0 0.00 0.00 0.00 93 1012.4
20240522053626 66 90 0.0 0.0 0.00 0.00 0.00 93 1012.4
20240522053126 66 90 0.0 0.0 0.00 0.00 0.00 93 1012.7
20240522052626 67 89 0.0 0.0 0.00 0.00 0.00 93 1012.4
20240522052125 66 90 0.0 0.0 0.00 0.00 0.00 93 1012.4
20240522051623 66 110 0.0 0.0 0.00 0.00 0.00 93 1012.7
20240522051122 67 96 0.0 0.0 0.00 0.00 0.00 93 1012.7
20240522050621 67 96 0.0 0.0 0.00 0.00 0.00 93 1012.7
20240522050119 67 95 0.0 0.0 0.00 0.00 0.00 93 1012.7
20240522045619 67 95 0.0 0.0 0.00 0.00 0.00 93 1012.7
20240522045119 67 95 0.0 0.0 0.00 0.00 0.00 93 1012.7
20240522044618 67 96 0.0 0.0 0.00 0.00 0.00 93 1012.7
20240522044117 67 96 0.0 0.0 0.00 0.00 0.00 93 1012.7
20240522043616 67 95 0.0 0.0 0.00 0.00 0.00 92 1012.7
20240522043114 68 96 0.0 0.0 0.00 0.00 0.00 92 1012.7
20240522042613 68 95 0.0 0.0 0.00 0.00 0.00 92 1012.7
20240522042111 68 96 0.0 0.0 0.00 0.00 0.00 92 1012.7
20240522041611 68 96 0.0 0.0 0.00 0.00 0.00 92 1012.7
20240522041110 68 94 0.0 0.0 0.00 0.00 0.00 92 1013.0
20240522040609 68 87 2.0 2.0 0.00 0.00 0.00 92 1013.0
20240522040108 68 84 0.0 0.0 0.00 0.00 0.00 92 1012.7
20240522035606 68 100 0.0 0.0 0.00 0.03 0.03 92 1012.7
20240522035105 68 100 0.0 0.0 0.00 0.03 0.03 92 1012.7
20240522034604 68 101 0.0 0.0 0.00 0.03 0.03 92 1012.7
20240522034104 69 100 0.0 0.0 0.00 0.03 0.03 91 1012.7
20240522033602 69 100 0.0 0.0 0.00 0.03 0.03 91 1012.7
20240522033101 69 100 0.0 0.0 0.00 0.03 0.03 91 1012.4
20240522032600 69 100 0.0 0.0 0.00 0.03 0.03 91 1012.4
20240522032100 69 100 0.0 0.0 0.00 0.03 0.03 91 1012.7
20240522031558 69 100 0.0 0.0 0.00 0.03 0.03 91 1012.4
20240522031057 69 100 0.0 0.0 0.00 0.03 0.03 90 1012.4
20240522030554 69 100 0.0 0.0 0.00 0.03 0.03 90 1012.7
20240522030051 69 100 0.0 0.0 0.00 0.03 0.03 90 1012.7
20240522025549 69 107 0.0 0.0 0.00 0.03 0.03 90 1012.7
20240522025049 69 106 0.0 0.0 0.00 0.03 0.03 90 1012.4
20240522024547 69 105 0.0 0.0 0.00 0.03 0.03 90 1012.4
20240522024046 69 100 0.0 0.0 0.00 0.03 0.03 90 1012.4
20240522023546 69 109 0.0 0.0 0.00 0.03 0.03 90 1012.4
20240522023045 69 102 0.0 0.0 0.00 0.03 0.03 90 1012.7
20240522022544 69 92 0.0 0.0 0.00 0.03 0.03 90 1012.4
20240522022043 69 92 0.0 0.0 0.00 0.03 0.03 90 1012.4
20240522021542 69 92 0.0 0.0 0.00 0.03 0.03 90 1012.4
20240522021041 69 92 0.0 0.0 0.00 0.03 0.03 90 1012.4
20240522020540 69 92 0.0 0.0 0.00 0.03 0.03 90 1012.4
20240522020039 69 92 0.0 0.0 0.00 0.03 0.03 90 1012.4
20240522015539 70 92 0.0 0.0 0.00 0.03 0.03 90 1012.4
20240522015038 70 92 0.0 0.0 0.00 0.03 0.03 90 1012.0
20240522014538 70 92 0.0 0.0 0.00 0.03 0.03 90 1012.4
20240522014037 70 92 0.0 0.0 0.00 0.03 0.03 89 1012.0
20240522013535 70 92 0.0 0.0 0.00 0.03 0.03 89 1012.0
20240522013035 70 92 0.0 0.0 0.00 0.03 0.03 89 1012.0
20240522012535 70 92 0.0 0.0 0.00 0.03 0.03 89 1012.0
20240522012034 70 92 0.0 0.0 0.00 0.03 0.03 89 1012.4
20240522011533 71 92 0.0 0.0 0.00 0.03 0.03 89 1012.4
20240522011032 71 92 0.0 0.0 0.00 0.03 0.03 89 1012.0
20240522010532 71 92 0.0 0.0 0.00 0.03 0.03 88 1012.0
20240522010031 71 92 0.0 0.0 0.00 0.03 0.03 88 1012.0
20240522005530 71 92 0.0 0.0 0.00 0.03 0.03 88 1012.0
20240522005029 71 92 0.0 0.0 0.00 0.03 0.03 88 1012.4
20240522004530 71 92 0.0 0.0 0.00 0.03 0.03 87 1012.0
20240522004029 72 92 0.0 0.0 0.00 0.03 0.03 87 1012.4
20240522003528 72 92 0.0 0.0 0.00 0.03 0.03 87 1012.0
20240522003027 72 92 0.0 0.0 0.00 0.03 0.03 86 1011.7
20240522002526 72 92 0.0 0.0 0.00 0.03 0.03 86 1012.0
20240522002024 72 92 0.0 0.0 0.00 0.03 0.03 85 1011.7
20240522001522 73 92 0.0 0.0 0.00 0.03 0.03 85 1011.7
20240522001022 73 92 0.0 0.0 0.00 0.03 0.03 85 1011.7
20240522000520 73 92 0.0 0.0 0.00 0.03 0.03 84 1011.7
20240522000021 73 95 0.0 0.0 0.00 0.03 0.03 84 1011.7
20240521235520 74 96 0.0 0.0 0.00 0.03 0.03 84 1012.0
20240521235019 74 96 0.0 0.0 0.00 0.03 0.03 83 1012.0
20240521234519 74 96 0.0 0.0 0.00 0.03 0.03 82 1011.7
20240521234018 74 96 0.0 0.0 0.00 0.03 0.03 82 1011.7
20240521233517 75 96 0.0 0.0 0.00 0.03 0.03 81 1012.0
20240521233017 75 96 0.0 0.0 0.00 0.03 0.03 81 1011.7
20240521232516 75 96 0.0 0.0 0.00 0.03 0.03 81 1012.0
20240521232015 76 96 0.0 0.0 0.00 0.03 0.03 80 1011.7
20240521231514 76 96 0.0 0.0 0.00 0.03 0.03 80 1012.0
20240521231012 76 96 0.0 0.0 0.00 0.03 0.03 80 1012.0
20240521230511 77 96 0.0 0.0 0.00 0.03 0.03 79 1012.0
20240521230009 77 96 0.0 0.0 0.01 0.03 0.03 79 1012.0
20240521225509 76 96 0.0 0.0 0.01 0.03 0.03 81 1012.0
20240521225008 76 95 0.0 0.0 0.01 0.03 0.03 84 1012.4
20240521224449 75 95 0.0 0.0 0.01 0.03 0.03 85 1012.4
20240521223949 75 147 0.0 0.0 0.01 0.03 0.03 84 1012.4
20240521223449 75 147 0.0 0.0 0.01 0.03 0.03 83 1012.4
20240521222945 75 147 0.0 0.0 0.01 0.03 0.03 83 1012.0
20240521222445 75 148 0.0 0.0 0.01 0.03 0.03 83 1012.0
20240521221944 76 132 2.0 3.0 0.01 0.03 0.03 81 1012.4
20240521221443 76 110 0.0 0.0 0.01 0.03 0.03 81 1012.4
20240521220942 76 121 0.0 0.0 0.01 0.03 0.03 82 1012.4
20240521220441 75 100 0.0 0.0 0.00 0.02 0.02 81 1012.0
20240521215938 76 100 0.0 0.0 0.00 0.02 0.02 80 1012.4
20240521215437 77 92 0.0 0.0 0.00 0.02 0.02 78 1012.0
20240521214936 78 100 0.0 0.0 0.00 0.02 0.02 75 1012.0
20240521214435 78 104 0.0 0.0 0.00 0.02 0.02 71 1011.7
20240521213933 79 107 0.0 0.0 0.00 0.02 0.02 69 1012.0
20240521213433 80 80 0.0 0.0 0.00 0.02 0.02 70 1012.4
20240521212931 80 119 0.0 0.0 0.00 0.02 0.02 68 1012.0
20240521212429 81 65 0.0 0.0 0.00 0.02 0.02 69 1012.0
20240521211926 81 63 0.0 0.0 0.00 0.02 0.02 69 1011.7
20240521211424 82 127 0.0 0.0 0.00 0.02 0.02 67 1011.7
20240521210923 82 127 0.0 0.0 0.00 0.02 0.02 67 1011.7
20240521210422 82 127 0.0 0.0 0.00 0.02 0.02 69 1011.7
20240521205921 83 127 0.0 0.0 0.00 0.02 0.02 67 1011.7
20240521205421 83 127 0.0 0.0 0.00 0.02 0.02 67 1011.7
20240521204920 83 127 0.0 0.0 0.00 0.02 0.02 65 1011.7
20240521204419 84 127 0.0 0.0 0.00 0.02 0.02 67 1011.7
20240521203919 84 127 0.0 0.0 0.00 0.02 0.02 65 1011.7
20240521203416 84 127 0.0 0.0 0.00 0.02 0.02 65 1011.7
20240521202915 85 127 0.0 0.0 0.00 0.02 0.02 66 1011.7
20240521202414 85 127 0.0 0.0 0.00 0.02 0.02 66 1011.7
20240521201913 86 127 0.0 0.0 0.00 0.02 0.02 64 1012.0
20240521201412 85 127 0.0 0.0 0.00 0.02 0.02 65 1012.0
20240521200911 85 127 0.0 0.0 0.00 0.02 0.02 65 1011.7
20240521200410 85 127 0.0 0.0 0.00 0.02 0.02 67 1012.0
20240521195908 85 127 0.0 0.0 0.01 0.02 0.02 68 1012.4
20240521195409 84 127 0.0 0.0 0.01 0.02 0.02 72 1012.0
20240521194907 84 127 0.0 2.0 0.01 0.02 0.02 71 1012.0
20240521194406 83 57 0.0 2.0 0.01 0.02 0.02 74 1012.0
20240521193904 81 57 0.0 0.0 0.01 0.02 0.02 77 1012.0
20240521193402 81 57 0.0 0.0 0.01 0.02 0.02 77 1012.0
20240521192900 80 57 0.0 0.0 0.00 0.01 0.01 75 1012.4
20240521192358 81 57 0.0 0.0 0.00 0.01 0.01 74 1012.4
20240521191857 81 57 0.0 0.0 0.00 0.01 0.01 74 1012.4
20240521191356 81 57 0.0 0.0 0.00 0.01 0.01 73 1012.4
20240521190855 81 57 0.0 0.0 0.00 0.01 0.01 72 1012.4
20240521190353 80 55 1.0 2.0 0.00 0.01 0.01 73 1012.4
20240521185852 80 119 0.0 0.0 0.01 0.01 0.01 76 1012.4
20240521185352 80 74 0.0 0.0 0.01 0.01 0.01 75 1012.4
20240521184850 80 57 2.0 3.0 0.01 0.01 0.01 74 1012.4
20240521184348 82 78 1.0 2.0 0.01 0.01 0.01 76 1012.7
20240521183846 82 114 0.0 0.0 0.01 0.01 0.01 76 1012.7
20240521183343 81 205 4.0 5.0 0.01 0.01 0.01 78 1012.4
20240521182841 80 90 0.0 0.0 0.01 0.01 0.01 81 1012.0
20240521182339 80 90 0.0 0.0 0.01 0.01 0.01 81 1012.0
20240521181839 80 90 0.0 0.0 0.01 0.01 0.01 78 1012.0
20240521181338 81 90 0.0 0.0 0.01 0.01 0.01 76 1012.0
20240521180837 82 91 0.0 0.0 0.01 0.01 0.01 72 1012.4
20240521180339 83 94 0.0 2.0 0.00 0.00 0.00 66 1012.4
20240521175831 83 94 0.0 2.0 0.00 0.00 0.00 63 1012.4
20240521175329 84 85 0.0 0.0 0.00 0.00 0.00 61 1012.4
20240521174828 84 104 0.0 0.0 0.00 0.00 0.00 62 1012.4
20240521174324 84 138 0.0 2.0 0.00 0.00 0.00 62 1012.4
20240521173822 83 168 0.0 0.0 0.00 0.00 0.00 67 1012.4
20240521173321 82 184 0.0 0.0 0.00 0.00 0.00 71 1012.4
20240521172820 81 184 0.0 0.0 0.00 0.00 0.00 71 1012.4
20240521172318 82 184 0.0 0.0 0.00 0.00 0.00 67 1012.4
20240521171817 82 185 0.0 0.0 0.00 0.00 0.00 65 1012.7
20240521171316 83 184 0.0 0.0 0.00 0.00 0.00 62 1012.7
20240521170815 84 185 1.0 2.0 0.00 0.00 0.00 61 1012.7
20240521170314 86 145 1.0 2.0 0.00 0.00 0.00 58 1012.7
20240521165811 86 145 0.0 0.0 0.00 0.00 0.00 59 1012.7
20240521165311 85 148 0.0 0.0 0.00 0.00 0.00 62 1013.0
20240521164809 83 149 0.0 0.0 0.00 0.00 0.00 64 1012.7
20240521164308 83 150 1.0 2.0 0.00 0.00 0.00 60 1013.0
20240521163808 83 76 0.0 0.0 0.00 0.00 0.00 63 1013.0
20240521163307 82 110 1.0 2.0 0.00 0.00 0.00 64 1013.4
20240521162805 82 125 0.0 0.0 0.00 0.00 0.00 63 1013.0
20240521162304 82 85 0.0 0.0 0.00 0.00 0.00 64 1013.0
20240521161802 83 84 0.0 0.0 0.00 0.00 0.00 64 1013.4
20240521161300 84 85 0.0 0.0 0.00 0.00 0.00 62 1013.4
20240521160758 84 85 0.0 0.0 0.00 0.00 0.00 62 1013.4
20240521160257 83 84 0.0 0.0 0.00 0.00 0.00 61 1013.4
20240521155756 83 134 1.0 2.0 0.00 0.00 0.00 63 1013.8
20240521155255 82 67 0.0 0.0 0.00 0.00 0.00 65 1013.4
20240521154754 82 65 0.0 0.0 0.00 0.00 0.00 64 1013.8
20240521154252 81 141 0.0 0.0 0.00 0.00 0.00 68 1013.8
20240521153751 80 141 0.0 0.0 0.00 0.00 0.00 69 1013.8
20240521153250 80 162 3.0 3.0 0.00 0.00 0.00 67 1013.8
20240521152748 80 128 0.0 0.0 0.00 0.00 0.00 69 1013.8
20240521152248 78 80 0.0 0.0 0.00 0.00 0.00 69 1014.2
20240521151745 78 77 0.0 0.0 0.00 0.00 0.00 69 1014.2
20240521151244 78 124 0.0 0.0 0.00 0.00 0.00 69 1014.2
20240521150743 77 78 2.0 3.0 0.00 0.00 0.00 70 1014.2
20240521150241 78 167 3.0 3.0 0.00 0.00 0.00 69 1014.2
20240521145740 77 139 1.0 2.0 0.00 0.00 0.00 69 1014.2
20240521145237 76 115 0.0 0.0 0.00 0.00 0.00 72 1014.2
20240521144736 76 135 0.0 2.0 0.00 0.00 0.00 71 1014.2
20240521144233 77 85 0.0 0.0 0.00 0.00 0.00 71 1014.2
20240521143732 77 61 0.0 2.0 0.00 0.00 0.00 71 1014.2
20240521143230 76 79 0.0 2.0 0.00 0.00 0.00 71 1014.2
20240521142729 75 155 0.0 0.0 0.00 0.00 0.00 72 1014.2
20240521142228 75 159 0.0 0.0 0.00 0.00 0.00 74 1014.5
20240521141726 75 130 0.0 0.0 0.00 0.00 0.00 74 1014.5
20240521141223 74 84 0.0 0.0 0.00 0.00 0.00 73 1014.5
20240521140721 73 125 2.0 3.0 0.00 0.00 0.00 73 1014.5
20240521140206 73 90 0.0 0.0 0.00 0.00 0.00 76 1014.5
20240521135705 71 85 1.0 2.0 0.00 0.00 0.00 77 1014.8
20240521135203 71 124 1.0 2.0 0.00 0.00 0.00 77 1014.8
20240521134702 72 78 0.0 0.0 0.00 0.00 0.00 77 1014.8